K3GM Weather Reports


Display with metric or nautical units.
time (UTC)temp
F
wind
direction
speed
MPH
gust
MPH
rain 1hr
in
rain 24hr
in
rain mn
in
humidity
%
barometer
mb
20260901204535 89 0 0.0 0.0 0.00 0.00 0.00 67 1013.7
20260901203104 89 0 0.0 0.0 0.00 0.00 0.00 65 1013.8
20260901201539 90 0 0.0 0.0 0.00 0.00 0.00 64 1013.8
20260901200042 90 0 0.0 0.0 0.00 0.00 0.00 64 1013.7
20260901194542 90 0 0.0 0.0 0.00 0.00 0.00 57 1013.9
20260901193042 90 0 0.0 0.0 0.00 0.00 0.00 60 1014.1
20260901191537 90 0 0.0 0.0 0.00 0.00 0.00 65 1014.1
20260901190042 89 0 0.0 0.0 0.00 0.00 0.00 57 1014.3
20260901184541 89 0 0.0 0.0 0.00 0.00 0.00 58 1014.5
20260901183051 88 0 0.0 0.0 0.00 0.00 0.00 66 1014.5
20260901181543 88 0 0.0 0.0 0.00 0.00 0.00 63 1014.9
20260901180042 87 0 0.0 0.0 0.00 0.00 0.00 63 1014.7
20260901174541 86 0 0.0 0.0 0.00 0.00 0.00 74 1015.1
20260901173048 84 0 0.0 0.0 0.00 0.00 0.00 79 1015.1
20260901171547 83 0 0.0 0.0 0.00 0.00 0.00 82 1015.6
20260901170040 83 0 0.0 0.0 0.00 0.00 0.00 83 1015.8
20260901164551 82 0 0.0 0.0 0.00 0.00 0.00 82 1015.9
20260901163042 82 0 0.0 0.0 0.00 0.00 0.00 82 1016.2
20260901161549 82 0 0.0 0.0 0.00 0.00 0.00 81 1016.1
20260901160043 81 0 0.0 0.0 0.00 0.00 0.00 81 1016.1
20260901154537 81 0 0.0 0.0 0.00 0.00 0.00 83 1016.2
20260901153048 82 0 0.0 0.0 0.00 0.00 0.00 82 1016.2
20260901151542 81 0 0.0 0.0 0.00 0.00 0.00 83 1016.5
20260901150044 80 0 0.0 0.0 0.00 0.00 0.00 84 1016.6
20260901144543 81 0 0.0 0.0 0.00 0.00 0.00 85 1016.5
20260901143045 80 0 0.0 0.0 0.00 0.00 0.00 86 1016.6
20260901141544 79 0 0.0 0.0 0.00 0.00 0.00 88 1016.4
20260901140040 79 0 0.0 0.0 0.00 0.00 0.00 89 1016.3
20260901134541 79 0 0.0 0.0 0.00 0.00 0.00 89 1016.2
20260901133041 79 0 0.0 0.0 0.00 0.00 0.00 91 1016.2
20260901131544 78 0 0.0 0.0 0.00 0.00 0.00 94 1016.1
20260901130041 77 0 0.0 0.0 0.00 0.00 0.00 99 1016.5
20260901124545 76 0 0.0 0.0 0.00 0.00 0.00 100 1016.5
20260901123043 75 0 0.0 0.0 0.00 0.00 0.00 100 1016.6
20260901121541 74 0 0.0 0.0 0.00 0.00 0.00 100 1016.6
20260901120049 74 0 0.0 0.0 0.00 0.00 0.00 100 1016.6
20260901114543 73 0 0.0 0.0 0.00 0.00 0.00 100 1016.7
20260901113042 73 0 0.0 0.0 0.00 0.00 0.00 100 1016.8
20260901111540 73 0 0.0 0.0 0.00 0.00 0.00 100 1016.8
20260901110039 73 0 0.0 0.0 0.00 0.00 0.00 100 1016.6
20260901104546 73 0 0.0 0.0 0.00 0.00 0.00 100 1016.9
20260901103042 73 0 0.0 0.0 0.00 0.00 0.00 100 1016.7
20260901101603 73 0 0.0 0.0 0.00 0.00 0.00 100 1016.7
20260901100043 73 0 0.0 0.0 0.00 0.00 0.00 100 1016.6
20260901094544 73 0 0.0 0.0 0.00 0.00 0.00 100 1016.6
20260901093042 73 0 0.0 0.0 0.00 0.00 0.00 100 1016.6
20260901091539 73 0 0.0 0.0 0.00 0.00 0.00 100 1016.8
20260901090044 73 0 0.0 0.0 0.00 0.00 0.00 100 1017.0
20260901084543 73 0 0.0 0.0 0.00 0.00 0.00 100 1016.8
20260901083042 73 0 0.0 0.0 0.00 0.00 0.00 100 1017.0
20260901081548 73 0 0.0 0.0 0.00 0.00 0.00 100 1016.8
20260901080052 73 0 0.0 0.0 0.00 0.00 0.00 100 1017.0
20260901074549 73 0 0.0 0.0 0.00 0.00 0.00 100 1017.0
20260901073042 73 0 0.0 0.0 0.00 0.00 0.00 100 1017.1
20260901071540 73 0 0.0 0.0 0.00 0.00 0.00 100 1017.2
20260901070042 73 0 0.0 0.0 0.00 0.00 0.00 100 1017.2
20260901064543 73 0 0.0 0.0 0.00 0.00 0.00 100 1017.3
20260901063041 73 0 0.0 0.0 0.00 0.00 0.00 100 1017.4
20260901061543 73 0 0.0 0.0 0.00 0.00 0.00 99 1017.4
20260901060041 73 0 0.0 0.0 0.00 0.00 0.00 98 1017.5
20260901054538 73 0 0.0 0.0 0.00 0.00 0.00 98 1017.8
20260901053103 73 0 0.0 0.0 0.00 0.00 0.00 98 1017.9
20260901051602 73 0 0.0 0.0 0.00 0.00 0.00 98 1017.9
20260901050041 73 0 0.0 0.0 0.00 0.00 0.00 97 1017.9
20260901044539 73 0 0.0 0.0 0.00 0.00 0.00 96 1018.2
20260901043044 73 0 0.0 0.0 0.00 0.00 0.00 95 1018.4
20260901041554 73 0 0.0 0.0 0.00 0.00 0.00 95 1018.4
20260901040043 73 0 0.0 0.0 0.00 0.00 0.00 94 1018.3
20260901034543 73 0 0.0 0.0 0.00 0.00 0.00 94 1018.6
20260901033041 73 0 0.0 0.0 0.00 0.00 0.00 94 1018.6
20260901031554 73 0 0.0 0.0 0.00 0.00 0.00 94 1018.6
20260901030038 73 0 0.0 0.0 0.00 0.00 0.00 94 1018.6
20260901024539 73 0 0.0 0.0 0.00 0.00 0.00 93 1018.7
20260901023043 73 0 0.0 0.0 0.00 0.00 0.00 92 1018.6
20260901021542 73 0 0.0 0.0 0.00 0.00 0.00 91 1018.9
20260901020042 73 0 0.0 0.0 0.00 0.00 0.00 91 1018.9
20260901014546 74 0 0.0 0.0 0.00 0.00 0.00 90 1018.7
20260901013036 74 0 0.0 0.0 0.00 0.00 0.00 89 1018.8
20260901011541 74 0 0.0 0.0 0.00 0.00 0.00 88 1018.6
20260901010042 75 0 0.0 0.0 0.00 0.00 0.00 87 1018.5
20260901004542 76 0 0.0 0.0 0.00 0.00 0.00 86 1018.7
20260901003042 76 0 0.0 0.0 0.00 0.00 0.00 85 1018.5
20260901001551 77 0 0.0 0.0 0.00 0.00 0.00 82 1018.3
20260901000039 77 0 0.0 0.0 0.00 0.00 0.00 80 1018.3
20260831234552 78 0 0.0 0.0 0.00 0.00 0.00 79 1018.2
20260831233038 78 0 0.0 0.0 0.00 0.00 0.00 78 1018.4
20260831231536 78 0 0.0 0.0 0.00 0.00 0.00 76 1018.5
20260831230036 79 0 0.0 0.0 0.00 0.00 0.00 75 1018.6
20260831224543 79 0 0.0 0.0 0.00 0.00 0.00 74 1018.5
20260831223040 79 0 0.0 0.0 0.00 0.00 0.00 72 1018.6
20260831221538 79 0 0.0 0.0 0.00 0.00 0.00 72 1018.7
20260831220042 79 0 0.0 0.0 0.00 0.00 0.00 71 1019.0
20260831214542 79 0 0.0 0.0 0.00 0.00 0.00 64 1018.9
20260831213042 79 0 0.0 0.0 0.00 0.00 0.00 70 1019.0
20260831211540 80 0 0.0 0.0 0.00 0.00 0.00 64 1019.1
20260831210043 80 0 0.0 0.0 0.00 0.00 0.00 68 1019.0